Regional Weather Roundup
Issued by NWS

Home | Current Version | Previous Version | Text Only | Print | Product List | Glossary Off
Versions: 1 2 3 4 5 6 7 8 9 10 11 12 13 14 15 16 17 18 19 20 21 22 23 24 25 26 27 28 29 30 31 32 33 34 35 36 37 38 39 40 41 42 43 44 45 46 47 48 49 50

000
ASUS45 KCYS 310010
RWRWY

WYOMING REGIONAL WEATHER ROUNDUP
NATIONAL WEATHER SERVICE CHEYENNE WY
500 PM MST FRI JAN 30 2015

NOTE:  "FAIR" INDICATES FEW OR NO CLOUDS BELOW 12,000 FEET
WITH NO SIGNIFICANT WEATHER AND/OR OBSTRUCTIONS TO VISIBILITY.

WYZ001-310100-
YELLOWSTONE NATIONAL PARK

CITY           SKY/WX    TMP DP  RH WIND       PRES   REMARKS
LK YELLOWSTONE   N/A     12   7  80 CALM      30.14F
6HR MIN TEMP:   0; 6HR MAX TEMP:  19;

W YELLOWSTONE  NOT AVBL

$$
WYZ002>013-054>058-071-098>099-310100-
NORTHERN WYOMING

CITY           SKY/WX    TMP DP  RH WIND       PRES   REMARKS
JACKSON        CLEAR     21  18  86 CALM      30.12F
CODY           FAIR      36  27  69 CALM      30.14S
GREYBULL       FOG       29  27  92 CALM      30.18R VSB<1/4
6HR MIN TEMP:  26; 6HR MAX TEMP:  29;

WORLAND        FAIR      30  25  81 CALM      30.16F
6HR MIN TEMP:  23; 6HR MAX TEMP:  33;

SHERIDAN       FAIR      36  23  59 CALM      30.14S
6HR MIN TEMP:  36; 6HR MAX TEMP:  51;

BUFFALO        FAIR      40  18  41 CALM      30.16R
6HR MIN TEMP:  39; 6HR MAX TEMP:  45;

GILLETTE       FAIR      34  23  64 CALM      30.15S
6HR MIN TEMP:  34; 6HR MAX TEMP:  46;

HULETT           N/A    N/A N/A N/A MISG        N/A
NEWCASTLE      FAIR      37  27  65 CALM      30.12R

$$
WYZ014>020-022>026-101>103-310100-
CENTRAL WYOMING

CITY           SKY/WX    TMP DP  RH WIND       PRES   REMARKS
BIG PINEY      CLOUDY    32  21  64 NE6       30.10F WCI  26
6HR MIN TEMP:  29; 6HR MAX TEMP:  35;

PINEDALE       CLOUDY    30  21  69 W3        30.11S
DUBOIS         FAIR      32  12  43 SE8       30.10F WCI  25
LANDER         CLOUDY    34  27  75 S3        30.14R
6HR MIN TEMP:  32; 6HR MAX TEMP:  38;

RIVERTON       FAIR      35  29  78 S3        30.15S
6HR MIN TEMP:  31; 6HR MAX TEMP:  39;

CASPER         FAIR      37  20  50 NE6       30.14S WCI  32
6HR MIN TEMP:  37; 6HR MAX TEMP:  45;

DOUGLAS        FAIR      39  20  46 N6        30.13S WCI  35
6HR MIN TEMP:  39; 6HR MAX TEMP:  47;


$$
WYZ021-027>030-104>119-310100-
SOUTHERN WYOMING

CITY           SKY/WX    TMP DP  RH WIND       PRES   REMARKS
EVANSTON       CLOUDY    34  25  69 NE10      30.05F WCI  26
6HR MIN TEMP:  32; 6HR MAX TEMP:  35;

KEMMERER       CLOUDY    34  27  75 NE6       30.08S WCI  29
FORT BRIDGER   CLOUDY    35  30  82 NE7       30.09F WCI  29
ROCK SPRINGS   CLOUDY    34  30  85 NE8       30.08S WCI  27
6HR MIN TEMP:  32; 6HR MAX TEMP:  37;

DIXON          CLOUDY    40  32  73 CALM      30.06S
RAWLINS        CLOUDY    37  29  72 NE7       30.09F WCI  32
6HR MIN TEMP:  33; 6HR MAX TEMP:  41; 6HR PCP: TRACE;

SARATOGA       CLOUDY    36  32  87 NW7       30.08S WCI  30
LARAMIE          N/A     35  29  78 N5        30.09S WCI  31
6HR MIN TEMP:  35; 6HR MAX TEMP:  38;

CHEYENNE       CLOUDY    39  23  52 NE7       30.09S WCI  34
6HR MIN TEMP:  39; 6HR MAX TEMP:  47;

TORRINGTON     FAIR      43  28  55 N5        30.09R
6HR MIN TEMP:  37; 6HR MAX TEMP:  47;

PINE BLUFFS    FAIR      37  27  65 NE3       30.10R

$$



USA.gov is the U.S. government's official web portal to all federal, state and local government web resources and services.